Location: Central Falls
(41.8900°N, 71.3929°W)
Time: 07:03:42
(UTC+00:00)

Altair - Pass Details

Date: 12 December 2023
Orbit: 1501 x 1682 km, 47.2° (Epoch: 29 February)

Event Time Altitude Azimuth Distance (km) Brightness Sun altitude
Rises 08:02:20 0° 172° (S) 4,903 10.2 -44.0°
Reaches altitude 10° 08:07:49 10° 149° (SSE) 3,896 9.8 -43.0°
Maximum altitude 08:12:04 14° 123° (ESE) 3,594 9.8 -42.2°
Drops below altitude 10° 08:16:15 10° 97° (E) 3,850 10.2 -41.4°
Sets 08:21:32 0° 73° (ENE) 4,801 10.9 -40.4°
